User: anonymous   Login
Location: R�o Tuerlos
(40.6704°N, 4.4622°W)
Time: 16:03:01
(UTC+00:00)
Language:

IRS-1D - Orbit

View from above orbital plane
View from above orbital plane
View from above satellite
View from above satellite

Ground track
Ground track

The orbit data is extracted from the following two-line orbital elements,

1 24971U 97057A   20225.45107538  .00000013  00000-0  19971-4 0  9990
2 24971  98.5666 169.6575 0054257  46.3160 314.2503 14.33999688196551
Epoch (UTC): 12 August 2020 10:49:32
Eccentricity: 0.0054257
inclination: 98.5666°
perigee height: 739 km
apogee height: 817 km
right ascension of ascending node: 169.6575°
argument of perigee: 46.3160°
revolutions per day: 14.33999688
mean anomaly at epoch: 314.2503°
orbit number at epoch: 19655

The dashed part of the orbit path shows where the satellite is in the earth's shadow,  

DLR